Wind_Speed
28 26 23 22 21 20 19 18 17 18 19 19 20 19 19 19 18 17 15 14 13 15 16 16 17 15 15 15 17 17 18 19 21 22 24 23 21 19 20 20 20 19 18
31 27 25 22 19 18 17 17 16 16 18 17 18 21 21 16 16 17 15 13 16 17 18 18 19 19 19 20 20 19 18 20 22 23 23 21 19 19 19 19 18 17 17
31 27 24 21 19 18 18 18 16 15 16 15 16 17 16 15 25 19 17 14 18 18 20 19 20 19 19 20 22 24 22 21 20 19 20 20 20 18 18 18 17 17 17
30 26 23 20 20 19 18 17 16 16 16 16 16 17 19 23 22 20 16 15 18 18 20 20 20 22 22 23 25 24 22 20 16 17 18 18 19 17 16 16 17 17 18
29 25 22 21 20 19 17 16 15 15 16 15 16 17 19 20 17 16 16 18 18 18 20 21 23 24 24 24 23 20 19 17 17 14 15 16 18 16 16 17 16 16 17
28 25 24 21 19 18 17 15 14 17 17 16 17 17 19 20 18 17 17 19 19 19 20 21 21 21 20 20 16 18 16 15 15 12 14 17 17 17 17 15 15 15 15
29 26 24 21 18 17 16 14 15 17 18 18 17 17 19 21 20 20 18 20 20 20 20 20 19 20 20 17 19 19 17 16 15 12 14 14 16 16 15 15 14 14 13
29 27 24 21 18 16 15 14 16 19 19 18 17 17 19 20 20 19 19 21 19 19 19 18 18 20 19 18 20 15 15 13 12 11 11 12 14 13 14 13 13 13 13
25 25 24 20 18 17 15 14 18 20 20 18 17 18 20 20 20 19 18 20 19 18 18 18 18 19 17 17 16 12 13 13 11 12 10 10 13 12 12 12 12 11 11
27 23 22 21 19 17 15 16 19 21 19 19 17 18 21 20 19 18 18 18 20 18 18 20 20 17 14 16 14 15 13 11 10 12 10 9 11 9 12 10 11 11 9
26 25 22 22 19 17 15 17 18 19 19 19 18 19 20 19 17 18 17 17 19 17 18 19 20 17 14 14 13 13 12 13 14 12 8 7 8 9 10 9 9 9 9
27 26 23 22 20 18 16 16 17 19 18 20 20 20 18 16 16 15 17 17 18 16 17 18 19 18 18 14 11 10 11 10 12 9 9 7 7 7 8 9 9 8 8
26 26 23 20 19 18 17 17 18 19 20 18 16 16 16 13 11 12 16 17 17 16 15 16 17 16 18 15 10 9 8 6 12 9 11 9 8 7 7 8 9 9 7
24 26 25 21 23 19 17 17 19 21 17 17 16 15 13 12 12 12 13 15 15 16 16 17 15 14 14 15 10 8 9 6 10 8 10 11 9 9 8 7 8 9 8
26 26 26 19 26 17 16 17 20 21 17 17 13 13 10 11 11 10 13 14 14 15 15 13 9 9 12 15 10 9 8 8 11 6 9 11 10 9 9 8 10 10 9
26 26 25 21 20 16 17 20 18 18 17 17 13 9 11 10 10 7 9 13 13 13 13 10 6 7 12 12 8 8 9 11 12 7 9 10 13 11 9 8 10 11 10
27 26 27 23 21 19 17 19 16 15 14 15 12 9 11 10 9 7 11 12 10 10 10 5 6 8 11 8 7 7 8 10 10 11 12 11 9 10 12 11 10 11 12
30 32 29 27 25 22 20 15 17 15 13 13 14 11 10 13 13 14 13 11 11 10 10 8 5 7 9 7 8 9 12 13 13 14 16 19 19 17 15 14 12 12 12
33 32 33 31 28 25 22 18 16 14 17 17 14 13 9 11 14 14 14 11 12 13 12 8 7 7 6 7 6 11 12 17 18 16 20 21 20 20 18 16 15 14 14
31 31 35 32 28 27 24 21 18 15 16 22 16 13 13 8 14 16 17 16 13 14 13 12 11 10 8 10 12 9 10 13 19 19 20 20 17 24 19 15 17 17 16
33 33 35 33 30 30 27 27 26 20 15 22 18 13 13 10 9 11 18 20 20 17 15 13 13 14 12 13 14 12 11 11 14 15 15 22 23 22 19 15 21 18 20
33 36 36 33 31 29 24 20 27 27 17 15 16 16 13 12 10 10 17 20 20 19 18 16 14 13 14 12 12 9 7 6 8 10 17 17 26 27 26 24 19 23 22
38 38 37 34 31 27 23 19 19 27 27 19 19 17 18 15 13 9 18 20 20 18 19 17 15 13 9 8 11 10 4 2 7 6 11 13 17 23 26 28 28 28 27
42 36 36 34 31 27 25 24 22 23 30 28 24 22 20 18 16 13 13 19 19 19 20 18 16 16 17 9 9 11 10 16 8 6 6 10 15 17 21 25 26 25 23
40 38 35 32 30 27 28 28 24 22 24 23 23 21 20 20 17 14 13 18 20 22 19 17 17 17 18 15 12 9 8 13 20 21 12 11 14 15 18 23 21 28 31
40 38 36 34 31 28 27 28 27 25 24 25 25 23 23 21 19 18 16 16 18 19 20 18 19 18 17 17 17 15 18 13 13 19 22 18 15 16 17 20 20 20 28
Wind_Direction
165 152 149 142 139 134 130 128 123 118 116 117 116 119 122 130 134 126 120 101 85 105 107 107 104 107 110 106 103 100 106 112 115 116 114 113 115 115 117 114 111 106 109
154 153 150 145 144 138 135 133 128 123 119 118 115 119 115 118 141 129 123 106 100 108 111 110 106 106 107 107 102 102 111 120 120 120 117 110 110 114 112 112 112 110 105
155 155 153 149 147 138 136 135 130 125 123 121 120 120 117 94 132 125 121 105 109 112 109 109 108 108 109 110 108 107 107 108 110 112 111 111 114 111 112 108 111 112 111
158 157 155 150 147 137 134 135 131 129 123 123 123 122 122 114 123 119 121 113 113 112 110 111 111 113 114 118 116 113 109 99 97 113 118 119 115 112 112 110 112 111 107
160 159 156 152 148 139 136 135 133 129 130 126 125 125 128 134 128 119 116 118 118 115 116 116 119 120 118 118 117 115 109 104 96 113 113 120 119 114 113 111 111 110 108
161 160 156 154 149 143 140 139 138 133 131 127 129 127 131 132 133 126 120 121 122 120 120 123 127 125 119 115 112 110 109 98 94 105 111 116 118 117 116 113 112 110 110
159 159 156 155 152 147 142 139 140 139 134 129 131 132 132 133 131 127 125 124 125 124 122 125 130 124 120 117 116 115 112 98 94 107 116 119 121 121 120 117 118 118 114
157 158 156 156 154 148 140 138 143 142 136 133 132 132 136 135 134 129 124 126 125 126 126 130 134 131 118 125 116 116 117 112 97 106 118 120 121 122 123 119 118 112 112
159 160 159 158 156 151 145 138 142 141 137 135 132 133 139 136 134 130 125 129 124 124 125 132 139 138 130 121 139 131 125 114 103 107 108 127 128 125 127 121 120 114 114
164 166 164 162 161 155 143 137 141 142 142 137 134 136 138 135 135 134 134 131 131 123 122 133 142 141 138 127 129 134 128 137 107 110 110 122 132 132 135 127 126 120 119
169 168 169 165 162 158 147 138 141 141 138 136 136 140 142 141 138 143 138 140 135 126 128 133 143 148 140 139 137 130 120 132 125 107 99 127 136 146 140 135 136 134 124
177 174 172 169 164 159 151 142 139 142 141 138 136 140 138 147 142 145 151 145 142 138 135 134 139 147 151 150 140 143 139 132 155 122 131 141 154 167 156 151 147 143 135
172 170 173 174 166 156 151 149 146 142 139 138 143 139 136 141 147 145 151 150 145 145 143 140 134 143 163 172 163 163 144 150 151 138 140 149 165 175 175 168 166 156 159
163 166 171 172 166 153 144 155 151 149 148 142 140 140 135 134 145 152 145 153 152 149 150 137 144 150 162 178 183 181 164 157 174 149 159 164 171 182 184 189 182 174 171
171 167 167 167 163 155 152 156 155 153 144 147 146 147 146 137 139 142 154 162 165 165 166 153 170 178 184 201 204 190 188 186 195 197 191 177 177 188 196 199 196 189 184
181 179 172 163 154 150 156 164 158 158 154 155 161 165 166 164 167 152 156 161 178 175 177 184 222 191 164 170 198 211 212 199 202 215 214 205 183 180 191 200 204 202 195
193 186 179 169 165 155 154 170 172 163 170 170 166 171 179 181 170 179 169 177 170 193 205 197 217 198 196 200 205 221 230 219 228 239 219 195 190 203 190 194 202 211 209
198 192 183 179 175 168 167 171 178 181 181 180 181 182 194 200 201 191 192 187 197 197 207 227 192 208 219 226 230 253 245 239 233 236 232 218 231 245 219 201 200 206 214
200 192 187 186 181 177 176 178 184 201 215 195 188 188 210 220 221 209 207 204 218 204 209 223 229 229 251 253 271 264 253 245 247 247 239 235 233 224 218 209 206 207 214
201 193 191 191 187 188 185 186 194 200 211 205 193 188 198 200 211 219 223 213 200 200 208 219 227 237 260 256 252 267 249 250 243 255 238 226 225 216 221 219 218 215 214
204 202 196 192 191 190 196 199 199 197 191 204 201 202 203 209 205 219 216 222 224 216 219 224 234 236 258 277 255 274 267 259 252 239 231 231 233 226 224 225 232 225 224
208 207 202 197 195 199 204 208 204 198 197 200 207 210 215 222 231 224 208 214 217 220 221 232 245 251 261 259 257 277 277 290 256 250 242 241 229 232 235 236 234 234 232
206 206 205 202 203 206 212 217 193 209 211 204 209 213 219 231 243 241 207 208 214 221 224 231 243 247 257 279 253 248 289 325 332 304 251 244 238 235 236 241 243 235 237
205 206 208 209 212 218 214 217 212 206 208 212 218 223 226 231 239 246 230 216 216 218 225 228 233 244 248 282 271 269 275 273 288 301 314 268 251 243 239 239 239 232 226
205 205 209 214 217 222 222 225 219 218 215 211 217 223 228 233 239 245 247 227 219 222 231 236 240 250 260 261 289 259 275 269 256 260 286 291 264 247 249 239 249 237 234
204 209 211 217 222 226 227 223 222 220 214 214 222 225 228 234 240 241 243 235 232 230 233 241 247 255 263 265 264 265 250 268 259 245 249 283 269 260 260 246 254 248 239
Height
1554 1555 1558 1560 1561 1562 1563 1563 1564 1565 1566 1567 1566 1567 1568 1570 1573 1574 1574 1574 1573 1573 1574 1574 1574 1575 1577 1578 1579 1579 1580 1580 1581 1582 1583 1583 1584 1584 1584 1584 1585 1585 1585
1551 1555 1558 1561 1563 1564 1564 1565 1565 1566 1567 1568 1568 1570 1570 1572 1573 1576 1576 1576 1576 1576 1576 1576 1577 1577 1579 1580 1582 1582 1583 1584 1585 1585 1585 1586 1587 1588 1588 1588 1588 1588 1588
1551 1555 1558 1561 1563 1564 1565 1566 1566 1567 1568 1570 1571 1572 1573 1572 1574 1577 1577 1577 1578 1578 1579 1579 1579 1581 1582 1583 1584 1585 1587 1588 1589 1589 1589 1589 1589 1590 1591 1591 1591 1591 1591
1552 1556 1559 1562 1564 1564 1566 1568 1568 1568 1569 1570 1572 1573 1574 1576 1577 1578 1579 1579 1580 1581 1581 1581 1583 1583 1583 1584 1585 1586 1588 1589 1591 1591 1591 1592 1592 1593 1594 1594 1594 1594 1595
1552 1557 1560 1563 1564 1564 1566 1569 1570 1569 1569 1571 1572 1574 1574 1576 1578 1580 1581 1581 1582 1583 1584 1584 1585 1585 1586 1586 1587 1588 1589 1590 1592 1594 1594 1594 1595 1596 1597 1598 1598 1598 1598
1553 1558 1561 1563 1565 1566 1566 1568 1570 1570 1571 1572 1574 1575 1576 1577 1579 1581 1582 1583 1584 1585 1586 1586 1587 1588 1589 1590 1591 1591 1592 1594 1595 1596 1597 1597 1597 1598 1599 1600 1601 1601 1601
1554 1558 1561 1564 1566 1566 1566 1568 1569 1570 1571 1573 1575 1577 1578 1579 1580 1583 1583 1584 1585 1587 1588 1589 1589 1590 1591 1592 1593 1594 1595 1596 1597 1598 1599 1600 1600 1601 1601 1602 1603 1603 1603
1555 1559 1562 1565 1566 1567 1568 1568 1570 1571 1572 1573 1576 1578 1579 1580 1582 1584 1584 1585 1586 1588 1590 1591 1593 1593 1593 1593 1596 1597 1597 1598 1598 1600 1601 1602 1603 1604 1604 1604 1605 1606 1606
1557 1559 1562 1565 1567 1567 1569 1569 1571 1572 1573 1574 1577 1579 1580 1581 1582 1584 1586 1587 1588 1589 1591 1592 1594 1595 1596 1597 1597 1598 1599 1601 1601 1602 1604 1605 1606 1606 1606 1607 1607 1609 1609
1557 1560 1562 1565 1568 1569 1569 1570 1572 1574 1575 1576 1578 1580 1581 1583 1584 1586 1588 1589 1590 1591 1592 1594 1595 1598 1598 1599 1599 1600 1600 1601 1603 1604 1605 1607 1607 1609 1609 1609 1609 1610 1611
1558 1560 1562 1565 1568 1569 1570 1571 1573 1575 1576 1577 1579 1580 1582 1584 1585 1587 1589 1590 1591 1592 1593 1595 1597 1599 1601 1601 1601 1602 1603 1603 1605 1605 1606 1608 1609 1610 1611 1612 1611 1612 1613
1557 1559 1563 1565 1567 1569 1571 1572 1574 1576 1577 1578 1580 1581 1583 1585 1587 1588 1590 1591 1593 1594 1594 1596 1598 1600 1602 1602 1603 1603 1604 1604 1606 1606 1607 1609 1610 1612 1612 1612 1613 1614 1614
1555 1559 1562 1566 1568 1569 1571 1573 1575 1577 1578 1580 1581 1582 1583 1586 1588 1589 1590 1592 1594 1596 1596 1598 1600 1601 1603 1603 1604 1605 1605 1606 1607 1608 1608 1609 1611 1612 1613 1614 1614 1615 1615
1555 1558 1561 1565 1566 1569 1571 1573 1575 1576 1578 1580 1582 1583 1584 1586 1588 1590 1591 1593 1594 1595 1597 1599 1601 1602 1603 1603 1604 1604 1606 1607 1608 1608 1608 1609 1610 1612 1613 1614 1615 1616 1617
1555 1558 1561 1564 1567 1569 1571 1573 1575 1576 1577 1580 1581 1582 1584 1586 1589 1590 1592 1593 1594 1595 1597 1599 1601 1603 1604 1604 1604 1605 1605 1606 1607 1608 1609 1609 1610 1611 1612 1614 1615 1616 1617
1554 1556 1560 1563 1566 1568 1570 1573 1575 1576 1578 1580 1581 1582 1584 1587 1589 1591 1592 1593 1595 1597 1598 1600 1601 1602 1603 1603 1604 1605 1605 1606 1606 1607 1608 1609 1609 1610 1611 1613 1614 1615 1616
1551 1554 1558 1562 1565 1568 1571 1573 1575 1576 1578 1579 1581 1582 1585 1586 1588 1589 1591 1593 1595 1597 1597 1598 1600 1602 1604 1604 1604 1604 1604 1605 1606 1606 1607 1608 1609 1609 1610 1612 1612 1614 1616
1547 1551 1556 1560 1563 1567 1570 1572 1574 1575 1577 1579 1580 1581 1583 1585 1588 1589 1590 1592 1594 1596 1597 1598 1600 1602 1602 1603 1603 1604 1603 1603 1604 1605 1606 1606 1605 1608 1610 1610 1611 1613 1614
1543 1548 1553 1557 1560 1564 1568 1571 1572 1574 1576 1578 1581 1582 1583 1584 1586 1588 1590 1591 1593 1594 1596 1598 1599 1599 1600 1602 1602 1602 1601 1599 1600 1601 1603 1603 1603 1605 1607 1608 1609 1611 1612
1542 1546 1550 1554 1557 1562 1566 1569 1571 1573 1573 1576 1579 1582 1584 1584 1585 1587 1588 1589 1591 1592 1594 1596 1597 1598 1598 1599 1600 1600 1599 1598 1598 1597 1597 1599 1600 1602 1604 1606 1607 1608 1609
1541 1544 1548 1551 1555 1559 1563 1566 1569 1570 1572 1574 1577 1580 1583 1584 1585 1585 1586 1587 1588 1590 1592 1594 1596 1597 1597 1597 1597 1597 1597 1596 1596 1595 1596 1596 1597 1599 1602 1603 1604 1605 1607
1537 1542 1545 1549 1552 1556 1560 1563 1566 1570 1571 1573 1576 1578 1580 1582 1584 1585 1585 1585 1587 1588 1590 1592 1593 1595 1595 1595 1595 1595 1595 1595 1593 1593 1592 1592 1593 1595 1596 1598 1601 1602 1604
1532 1536 1541 1546 1551 1554 1556 1561 1565 1569 1571 1572 1573 1575 1578 1580 1582 1583 1585 1585 1586 1587 1589 1590 1591 1592 1594 1594 1593 1594 1593 1592 1593 1591 1591 1591 1591 1591 1592 1592 1595 1597 1599
1527 1534 1539 1544 1548 1552 1554 1556 1559 1563 1566 1569 1571 1573 1575 1578 1579 1581 1582 1584 1585 1585 1587 1588 1589 1590 1590 1590 1591 1592 1590 1591 1591 1589 1588 1590 1591 1589 1588 1588 1590 1592 1595
1526 1532 1538 1543 1546 1549 1551 1554 1557 1559 1563 1567 1569 1571 1572 1574 1576 1577 1579 1581 1582 1582 1584 1585 1586 1586 1586 1587 1588 1587 1586 1583 1587 1587 1585 1584 1584 1585 1585 1585 1586 1588 1590
1523 1529 1535 1541 1545 1547 1549 1551 1554 1556 1559 1562 1565 1567 1569 1572 1573 1575 1576 1577 1579 1580 1580 1581 1583 1583 1583 1584 1585 1585 1584 1583 1583 1583 1583 1583 1579 1581 1582 1582 1582 1582 1583